[[{"header":{"parameterUnit":"m.s-1","parameterCategory":1,"la1":30.2991,"la2":30.254,"lo1":-89.0895,"lo2":-89.0444,"dy":0.0017,"dx":0.0017,"nx":28,"ny":28,"refTime":"2025-08-31T09:00:00:Z","depth":0,"parameterNumber":2,"parameterNumberName":"U-component_of_WINDS"},"data":[0,0,0,0,0,0,0,0,0,0,0,0,0,0,0,0,0,0,0,0,0,0,0,0,0,0,0,0,0,0,0,0,0,0,0,0,0,0,0,0,0,0,0,0,0,0,0,0,0,0,0,0,0,0,0,0,0,0,-2.6009,-2.6008,0,-2.5902,-2.59,-2.5899,-2.5779,-2.5777,-2.5775,-2.5773,-2.5666,-2.5665,-2.5664,0,0,0,0,0,0,0,0,0,0,0,0,0,-2.6115,-2.6114,-2.6009,-2.6008,-2.6007,-2.5902,-2.59,-2.5899,-2.5779,-2.5777,-2.5775,-2.5773,-2.5667,-2.5665,-2.5664,0,0,0,0,0,0,0,0,0,0,0,0,0,-2.6045,-2.6114,-2.601,-2.5934,-2.5926,-2.5902,-2.59,-2.5898,-2.5779,-2.5777,-2.5774,-2.5772,-2.5667,-2.5665,-2.5664,-2.5706,0,0,-2.5658,-2.5657,0,0,0,0,0,0,0,0,-2.6049,-2.6041,-2.5947,-2.5939,-2.5931,-2.5851,-2.5898,-2.5834,-2.578,-2.5835,-2.5773,-2.577,-2.573,-2.5723,-2.5709,-2.5701,-2.5696,-2.5658,-2.5657,-2.5656,-2.5656,0,0,0,0,0,0,0,-2.6054,-2.6045,-2.5967,-2.5945,-2.5936,-2.5907,-2.5894,-2.5886,-2.5799,-2.583,-2.5821,-2.581,-2.5725,-2.5711,-2.5705,-2.5695,-2.5658,-2.5657,-2.5655,-2.5655,-2.5719,-2.5722,0,0,0,0,0,0,-2.607,-2.605,-2.597,-2.5964,-2.5984,-2.5907,-2.5893,-2.5879,-2.5799,-2.5784,-2.5812,-2.5805,-2.5715,-2.5708,-2.5701,-2.5747,-2.5656,-2.5655,-2.5654,-2.5716,-2.572,-2.5723,0,0,0,0,0,0,-2.6073,-2.6064,-2.5975,-2.6004,-2.5991,-2.5908,-2.5894,-2.5878,-2.5864,-2.5785,-2.577,-2.5813,-2.5713,-2.5704,-2.5706,-2.5742,-2.5654,-2.5652,-2.5713,-2.5717,-2.5721,-2.5839,0,0,0,0,0,0,-2.6076,-2.6065,-2.608,-2.6005,-2.599,-2.5981,-2.5896,-2.5878,-2.5861,-2.585,-2.5782,-2.5768,-2.571,-2.5709,-2.5704,-2.5738,-2.5651,-2.571,-2.5715,-2.572,-2.5832,-2.5847,-2.586,0,0,0,0,0,-2.608,-2.6117,-2.6081,-2.6072,-2.6005,-2.5983,-2.5974,-2.5905,-2.5864,-2.5878,-2.5828,-2.577,-2.5738,-2.5711,-2.5704,-2.5737,-2.5707,-2.5713,-2.572,-2.5825,-2.5844,-2.5859,0,0,0,0,0,0,-2.6199,-2.6106,-2.6065,-2.6079,-2.604,-2.5962,-2.5978,-2.5926,-2.5899,-2.589,-2.5806,-2.5792,-2.5805,-2.5771,-2.5742,-2.5775,-2.5714,-2.572,-2.5797,-2.5814,-2.5828,-2.5837,-2.5649,0,0,0,0,0,-2.6226,-2.6214,-2.6134,-2.6155,-2.6137,-2.6062,-2.6049,-2.5999,-2.5956,-2.5939,-2.5889,-2.585,-2.5831,-2.582,-2.5798,-2.5826,-2.5811,-2.5846,-2.586,-2.5872,-2.5878,-2.5892,-2.5907,-2.5743,-2.5743,-2.5743,0,0,-2.6283,-2.6231,-2.6229,-2.6177,-2.6141,-2.6132,-2.6048,-2.6042,-2.6035,-2.5938,-2.5938,-2.59,-2.5851,-2.5867,-2.5871,-2.5839,-2.592,-2.5879,-2.589,-2.5889,-2.59,-2.5916,-2.593,-2.5748,-2.5747,-2.5746,0,0,-2.6383,-2.6342,-2.6355,-2.6321,-2.6267,-2.6216,-2.622,-2.6151,-2.6122,-2.612,-2.6047,-2.6039,-2.6007,-2.5976,-2.5956,-2.6047,-2.5993,-2.6042,-2.6116,-2.6131,-2.6144,-2.6155,-2.619,-2.6203,-2.6048,-2.6048,-2.6048,0,-2.6462,-2.6444,-2.6369,-2.6367,-2.6348,-2.6259,-2.6273,-2.6243,-2.6186,-2.6175,-2.6139,-2.6099,-2.606,-2.6068,-2.6091,-2.6076,-2.608,-2.605,-2.6148,-2.6158,-2.6168,-2.62,-2.6213,-2.6055,-2.6054,-2.6053,-2.6053,0,-2.6544,-2.6534,-2.6551,-2.6497,-2.6479,-2.6486,-2.6413,-2.6404,-2.6357,-2.6311,-2.6312,-2.6261,-2.6229,-2.6227,-2.618,-2.6229,-2.6211,-2.6163,-2.61,-2.6191,-2.622,-2.6231,-2.6064,-2.6061,-2.606,-2.6058,0,0,-2.6716,-2.6621,-2.6629,-2.6604,-2.6539,-2.653,-2.6533,-2.6501,-2.6496,-2.646,-2.6462,-2.6438,-2.6394,-2.6371,-2.6321,-2.6334,-2.6412,-2.6283,-2.6281,-2.6311,-2.6466,-2.6504,-2.652,-2.6375,-2.6377,-2.6379,-2.6471,0,-2.6806,-2.6805,-2.6738,-2.6757,-2.6748,-2.6664,-2.6667,-2.6629,-2.6586,-2.6573,-2.6526,-2.6512,-2.6453,-2.6439,-2.6448,-2.64,-2.6442,-2.6392,-2.6379,-2.6379,-2.6396,-2.6534,-2.6574,-2.6664,-2.6481,-2.6483,-2.6484,0,-2.6911,-2.688,-2.6899,-2.6834,-2.6828,-2.6832,-2.6798,-2.6786,-2.6741,-2.6709,-2.6686,-2.6628,-2.6629,-2.6569,-2.657,-2.6538,-2.6529,-2.6505,-2.6506,-2.6504,-2.6439,-2.6538,-2.669,-2.6705,-2.6501,-2.65,-2.6499,0,-2.7037,-2.7001,-2.7007,-2.6989,-2.6913,-2.6919,-2.6888,-2.684,-2.6826,-2.6796,-2.6786,-2.6758,-2.6743,-2.6723,-2.6661,-2.6622,-2.667,-2.6604,-2.6646,-2.6648,-2.6662,-2.6662,-2.6817,-2.6652,-2.6652,-2.6652,-2.6652,0,-2.7146,-2.7161,-2.7063,-2.7068,-2.7083,-2.7006,-2.7024,-2.6985,-2.6944,-2.694,-2.6866,-2.6865,-2.6781,-2.6771,-2.6722,-2.6732,-2.6725,-2.6701,-2.6689,-2.6709,-2.6713,-2.6703,-2.6696,-2.6655,-2.6655,-2.6654,-2.6653,0,-2.729,-2.7225,-2.7227,-2.7156,-2.7138,-2.7153,-2.7093,-2.7095,-2.7048,-2.7045,-2.704,-2.6967,-2.6952,-2.6887,-2.6856,-2.6823,-2.6851,-2.6824,-2.6866,-2.6858,-2.6905,-2.6902,-2.706,-2.7078,-2.6901,-2.6903,-2.6904,0,-2.7365,-2.7375,-2.7304,-2.7297,-2.7269,-2.7257,-2.7242,-2.7167,-2.7155,-2.7106,-2.7115,-2.7093,-2.7072,-2.7052,-2.6998,-2.6974,-2.6948,-2.7005,-2.6944,-2.6965,-2.6952,-2.6953,-2.6955,-2.7019,-2.7021,-2.7023,-2.7024,0,-2.7505,-2.7473,-2.7453,-2.7424,-2.7408,-2.7381,-2.735,-2.7348,-2.7265,-2.7256,-2.7239,-2.7223,-2.7191,-2.7172,-2.714,-2.7109,-2.7055,-2.7044,-2.7053,-2.7075,-2.71,-2.709,-2.6904,-2.7041,-2.7039,-2.7038,-2.7037,-2.7037,-2.7618,-2.7624,-2.7576,-2.7558,-2.7526,-2.7499,-2.7498,-2.7452,-2.7436,-2.7404,-2.7361,-2.7351,-2.7308,-2.7259,-2.7233,-2.7225,-2.7194,-2.7206,-2.721,-2.7215,-2.7226,-2.71,-2.7219,-2.7218,-2.7218,-2.7217,-2.7217,0,-2.7757,-2.7722,-2.7706,-2.7665,-2.7651,-2.7599,-2.7562,-2.7555,-2.7546,-2.751,-2.7491,-2.7473,-2.7454,-2.7399,-2.7375,-2.7379,-2.7354,-2.7376,-2.7376,-2.7371,-2.7254,-2.725,-2.7397,-2.7397,-2.7397,-2.7397,-2.7397,-2.7397,-2.7827,-2.7835,-2.7797,-2.7789,-2.7754,-2.7743,-2.7727,-2.7702,-2.7673,-2.7657,-2.764,-2.7604,-2.7561,-2.7534,-2.7515,-2.7499,-2.7495,-2.7526,-2.7503,-2.7396,-2.7378,-2.7362,-2.7358,-2.7525,-2.7526,-2.762,-2.7621,-2.7622]},{"header":{"parameterUnit":"m.s-1","parameterCategory":1,"la1":30.2991,"la2":30.254,"lo1":-89.0895,"lo2":-89.0444,"dy":0.0017,"dx":0.0017,"nx":28,"ny":28,"refTime":"2025-08-31T09:00:00:Z","depth":0,"parameterNumber":3,"parameterNumberName":"V-component_of_WINDS"},"data":[0,0,0,0,0,0,0,0,0,0,0,0,0,0,0,0,0,0,0,0,0,0,0,0,0,0,0,0,0,0,0,0,0,0,0,0,0,0,0,0,0,0,0,0,0,0,0,0,0,0,0,0,0,0,0,0,0,0,0.3206,0.3206,0,0.3167,0.3166,0.3166,0.3122,0.3121,0.312,0.312,0.3077,0.3076,0.3076,0,0,0,0,0,0,0,0,0,0,0,0,0,0.3243,0.3242,0.3206,0.3206,0.3205,0.3167,0.3166,0.3166,0.3122,0.3121,0.312,0.312,0.3077,0.3077,0.3076,0,0,0,0,0,0,0,0,0,0,0,0,0,0.3217,0.3242,0.3206,0.3179,0.3176,0.3167,0.3166,0.3165,0.3122,0.3121,0.312,0.3119,0.3077,0.3077,0.3076,0.309,0,0,0.3073,0.3073,0,0,0,0,0,0,0,0,0.3219,0.3216,0.3183,0.3181,0.3177,0.3148,0.3163,0.314,0.3122,0.3142,0.312,0.3119,0.3101,0.3098,0.3093,0.3088,0.3086,0.3073,0.3073,0.3072,0.3072,0,0,0,0,0,0,0,0.3221,0.3217,0.319,0.3183,0.3179,0.3168,0.3163,0.3159,0.3128,0.3141,0.3137,0.3133,0.3099,0.3094,0.3092,0.3085,0.3073,0.3072,0.3072,0.3072,0.3088,0.3089,0,0,0,0,0,0,0.3227,0.3219,0.3192,0.3189,0.3196,0.3168,0.3163,0.3158,0.3128,0.3122,0.3134,0.3131,0.3096,0.3093,0.309,0.3103,0.3072,0.3072,0.3071,0.3087,0.3088,0.3089,0,0,0,0,0,0,0.3228,0.3225,0.3193,0.3203,0.3198,0.3169,0.3164,0.3158,0.3152,0.3123,0.3117,0.3134,0.3095,0.3091,0.309,0.3101,0.3071,0.307,0.3086,0.3088,0.3089,0.3129,0,0,0,0,0,0,0.3229,0.3225,0.323,0.3204,0.3198,0.3194,0.3165,0.3158,0.3151,0.3147,0.3121,0.3116,0.3094,0.3091,0.3089,0.3099,0.307,0.3085,0.3087,0.3088,0.3127,0.3132,0.3136,0,0,0,0,0,0.323,0.3243,0.3231,0.3228,0.3204,0.3195,0.3192,0.3167,0.3153,0.3157,0.3138,0.3117,0.3101,0.3092,0.3089,0.3099,0.3084,0.3086,0.3088,0.3125,0.3131,0.3136,0,0,0,0,0,0,0.3271,0.3239,0.3225,0.323,0.3216,0.3188,0.3193,0.3174,0.3163,0.316,0.3129,0.3123,0.3126,0.3112,0.3103,0.311,0.3089,0.3091,0.3118,0.3124,0.3128,0.313,0.3069,0,0,0,0,0,0.3281,0.3277,0.3249,0.3256,0.325,0.3223,0.3218,0.32,0.3184,0.3177,0.3158,0.3142,0.3134,0.3128,0.3119,0.3126,0.3119,0.3131,0.3136,0.314,0.3141,0.3142,0.3147,0.3096,0.3096,0.3096,0,0,0.33,0.3282,0.3281,0.3264,0.325,0.3246,0.3218,0.3215,0.3211,0.3176,0.3174,0.316,0.314,0.3143,0.3143,0.3132,0.3154,0.3143,0.3146,0.3145,0.3145,0.315,0.3154,0.3098,0.3098,0.3097,0,0,0.3333,0.332,0.3323,0.3311,0.3292,0.3274,0.3276,0.3251,0.324,0.3237,0.3211,0.3207,0.3193,0.3179,0.3171,0.32,0.318,0.3198,0.3222,0.3224,0.3228,0.3231,0.3239,0.3243,0.32,0.32,0.32,0,0.3359,0.3352,0.3327,0.3326,0.3318,0.3289,0.3291,0.3281,0.3259,0.3254,0.3243,0.3224,0.3209,0.3208,0.3215,0.321,0.3209,0.32,0.3229,0.3232,0.3235,0.3243,0.3246,0.3202,0.3202,0.3202,0.3202,0,0.3384,0.338,0.3385,0.3366,0.3359,0.336,0.3335,0.3331,0.3315,0.3298,0.3296,0.3277,0.3263,0.3262,0.3245,0.3258,0.3251,0.3235,0.3213,0.3242,0.3249,0.3252,0.3205,0.3205,0.3204,0.3203,0,0,0.3438,0.3407,0.3409,0.3399,0.3377,0.3373,0.3373,0.3359,0.3356,0.3343,0.3341,0.333,0.3315,0.3306,0.3288,0.329,0.3312,0.3273,0.3272,0.3279,0.3323,0.3333,0.3337,0.33,0.33,0.3301,0.3324,0,0.3465,0.3462,0.3441,0.3444,0.3439,0.3412,0.3411,0.3397,0.3382,0.3376,0.3359,0.3351,0.3333,0.3327,0.3328,0.3309,0.332,0.3308,0.3295,0.3295,0.3298,0.3341,0.3352,0.3374,0.3326,0.3327,0.3327,0,0.3495,0.3484,0.3487,0.3465,0.3462,0.3462,0.3448,0.3443,0.3426,0.3415,0.3405,0.3386,0.3383,0.3365,0.3359,0.3351,0.3345,0.3336,0.3336,0.3331,0.3311,0.3335,0.3381,0.3384,0.3331,0.3331,0.3331,0,0.3532,0.3518,0.3518,0.3511,0.3486,0.3486,0.3475,0.3458,0.3451,0.344,0.3435,0.3423,0.3416,0.3406,0.3384,0.3373,0.338,0.3361,0.337,0.337,0.337,0.337,0.3413,0.3371,0.3371,0.3371,0.3371,0,0.3562,0.3564,0.3534,0.3533,0.3535,0.3511,0.3513,0.35,0.3485,0.3481,0.3457,0.3454,0.3425,0.3418,0.3401,0.3398,0.3396,0.3386,0.338,0.3386,0.3387,0.338,0.3377,0.3372,0.3371,0.3371,0.3371,0,0.3601,0.3582,0.3579,0.3556,0.355,0.3552,0.3532,0.353,0.3515,0.351,0.3507,0.3482,0.3473,0.3451,0.3435,0.3423,0.3424,0.3417,0.343,0.3426,0.3436,0.3434,0.3473,0.3477,0.3435,0.3436,0.3436,0,0.3621,0.3622,0.3599,0.3595,0.3585,0.3579,0.3573,0.355,0.3544,0.3526,0.3526,0.3515,0.3505,0.3491,0.3471,0.3459,0.3449,0.3464,0.3447,0.3453,0.3447,0.3446,0.3445,0.3467,0.3468,0.3468,0.3468,0,0.3656,0.3647,0.3639,0.3627,0.3621,0.361,0.3599,0.3597,0.3571,0.3565,0.3556,0.3548,0.3533,0.3522,0.3508,0.3495,0.3477,0.3475,0.3475,0.348,0.3487,0.3481,0.3437,0.3473,0.3472,0.3472,0.3472,0.3472,0.3684,0.3684,0.3668,0.366,0.3649,0.3639,0.3636,0.3621,0.3613,0.3599,0.3586,0.3578,0.3562,0.354,0.353,0.3522,0.3513,0.3515,0.3515,0.3515,0.3517,0.349,0.352,0.352,0.3519,0.3519,0.3519,0,0.3717,0.3706,0.3699,0.3683,0.3677,0.3663,0.365,0.3645,0.3638,0.3625,0.3616,0.3605,0.3594,0.3575,0.3562,0.356,0.3551,0.3557,0.3556,0.3553,0.3527,0.3526,0.3564,0.3564,0.3564,0.3564,0.3564,0.3564,0.3732,0.373,0.3719,0.3712,0.37,0.3693,0.3686,0.3677,0.3666,0.3655,0.3647,0.3635,0.3618,0.3605,0.3594,0.3588,0.3584,0.3592,0.3584,0.3559,0.3555,0.3551,0.355,0.3592,0.3592,0.361,0.361,0.361]}]]